Location: Olomouc
(49.5830°N, 17.2500°E)
Time: 19:29:15
(UTC+02:00)

ISS - Pass Details

Date: 08 May 2021
Orbit: 417 x 422 km, 51.6° (Epoch: 14 June)

Event Time Altitude Azimuth Distance (km) Brightness Sun altitude
Exits shadow 04:20:35 - 282° (WNW) 2,216 -0.5 -8.4°
Reaches altitude 10° 04:22:19 10° 285° (WNW) 1,510 -1.3 -8.2°
Maximum altitude 04:25:41 62° 7° (N) 479 -3.2 -7.8°
Drops below altitude 10° 04:29:03 10° 89° (E) 1,510 0.0 -7.3°
Sets 04:31:10 0° 93° (E) 2,374 0.9 -7.1°
